Location: Bogotá
(4.6533°N, 74.0837°W)
Time: 09:16:12
(UTC+00:00)

ISS - Pass Details

Date: 12 July 2024
Orbit: 409 x 423 km, 51.6° (Epoch: 24 July)

Event Time Altitude Azimuth Distance (km) Brightness Sun altitude
Rises 10:37:11 0° 301° (WNW) 2,349 -0.3 -4.0°
Reaches altitude 10° 10:39:40 10° 283° (WNW) 1,491 -1.4 -3.4°
Maximum altitude 10:42:09 19° 235° (SW) 1,054 -2.3 -2.9°
Drops below altitude 10° 10:44:39 10° 187° (S) 1,500 -1.2 -2.3°
Sets 10:47:09 0° 168° (SSE) 2,368 0.0 -1.7°
